Tracking 19817 objects as of 19-Aug-2019
HD Live streaming from Space Station
objects crossing your sky now

BREEZE-M DEB

Track BREEZE-M DEB now!
10-day predictions


NORAD ID: 36594
Int'l Code: 2010-025C
Perigee: 308.2 km
Apogee: 16,027.3 km
Inclination: 49.5 °
Period: 290.8 minutes
Semi major axis: 14538 km
RCS: 5.977 m2 (large)
Launch date: June 3, 2010
Source: Commonwealth of Independent States (former USSR) (CIS)
Launch site: TYURATAM MISSILE AND SPACE COMPLEX (TTMTR)

Note: This is SATELLITE DEBRIS
aabbcc
Your satellite tracking list
Your tracking list is empty




NASA's NSSDC Master Catalog

Two Line Element Set (TLE):
1 36594U 10025C   19229.66808756 +.00001672 +00000-0 +35486-3 0  9999
2 36594 049.5441 009.9911 5405952 225.0132 075.9450 04.95237552163923
Source of the keplerian elements: AFSPC